Time,TemperatureF,DewpointF,PressureIn,WindDirection,WindDirectionDegrees,WindSpeedMPH,WindSpeedGustMPH,Humidity,HourlyPrecipIn,Conditions,Clouds,dailyrainin,SoftwareType,DateUTC
2013-02-02 04:26:00,86.4,73.7,29.44,SE,135,4.0,4.0,66,0.00,,,0.00,VWS V14.01,2013-02-01 18:26:00,
2013-02-02 04:31:00,86.4,71.8,29.44,West,270,2.0,5.4,62,0.00,,,0.00,VWS V14.01,2013-02-01 18:31:00,
2013-02-02 04:36:00,86.9,72.8,29.44,SW,225,8.7,8.7,63,0.00,,,0.00,VWS V14.01,2013-02-01 18:36:00,
2013-02-02 04:41:00,86.9,72.8,29.44,South,180,10.7,10.7,63,0.00,,,0.00,VWS V14.01,2013-02-01 18:41:00,
2013-02-02 04:47:00,86.7,72.6,29.44,NE,45,3.6,7.4,63,0.00,,,0.00,VWS V14.01,2013-02-01 18:47:00,
2013-02-02 04:52:00,86.7,72.6,29.44,WNW,292,2.9,2.9,63,0.00,,,0.00,VWS V14.01,2013-02-01 18:52:00,
2013-02-02 04:57:00,86.5,72.0,29.44,NW,315,2.0,2.0,62,0.00,,,0.00,VWS V14.01,2013-02-01 18:57:00,
2013-02-02 05:02:00,86.7,72.2,29.44,ENE,68,4.3,4.3,62,0.00,,,0.00,VWS V14.01,2013-02-01 19:02:00,
2013-02-02 05:07:00,86.9,72.3,29.44,WSW,248,1.6,1.6,62,0.00,,,0.00,VWS V14.01,2013-02-01 19:07:00,
2013-02-02 05:12:00,86.7,72.2,29.44,WSW,248,7.8,7.8,62,0.00,,,0.00,VWS V14.01,2013-02-01 19:12:00,
2013-02-02 05:17:00,86.7,72.2,29.44,SSW,202,15.7,15.7,62,0.00,,,0.00,VWS V14.01,2013-02-01 19:17:00,
2013-02-02 05:22:00,86.7,72.2,29.44,WNW,292,6.5,6.5,62,0.00,,,0.00,VWS V14.01,2013-02-01 19:22:00,
2013-02-02 05:27:00,86.7,72.2,29.44,SW,225,5.4,5.4,62,0.00,,,0.00,VWS V14.01,2013-02-01 19:27:00,
2013-02-02 05:32:00,86.5,72.0,29.44,WSW,248,3.1,6.0,62,0.00,,,0.00,VWS V14.01,2013-02-01 19:32:00,
2013-02-02 05:37:00,86.7,71.7,29.44,South,180,4.0,4.0,61,0.00,,,0.00,VWS V14.01,2013-02-01 19:37:00,
2013-02-02 05:42:00,86.7,72.2,29.44,SW,225,2.9,8.1,62,0.00,,,0.00,VWS V14.01,2013-02-01 19:42:00,
2013-02-02 05:47:00,86.5,72.0,29.44,WNW,292,5.8,21.0,62,0.00,,,0.00,VWS V14.01,2013-02-01 19:47:00,
2013-02-02 05:52:00,86.5,72.0,29.44,WSW,248,16.8,16.8,62,0.00,,,0.00,VWS V14.01,2013-02-01 19:52:00,
2013-02-02 05:57:00,86.5,72.0,29.44,SW,225,15.4,15.4,62,0.00,,,0.00,VWS V14.01,2013-02-01 19:57:00,
2013-02-02 06:02:00,86.5,72.5,29.44,SW,225,4.9,4.9,63,0.00,,,0.00,VWS V14.01,2013-02-01 20:02:00,
2013-02-02 06:07:00,86.5,72.5,29.44,WSW,248,7.4,12.5,63,0.00,,,0.00,VWS V14.01,2013-02-01 20:07:00,
2013-02-02 06:12:00,86.5,72.5,29.44,WNW,292,8.7,8.7,63,0.00,,,0.00,VWS V14.01,2013-02-01 20:12:00,
2013-02-02 06:17:00,86.5,72.5,29.44,WNW,292,13.2,13.2,63,0.00,,,0.00,VWS V14.01,2013-02-01 20:17:00,
2013-02-02 06:22:00,86.5,72.5,29.44,South,180,15.4,23.3,63,0.00,,,0.00,VWS V14.01,2013-02-01 20:22:00,
2013-02-02 06:27:00,86.5,72.5,29.44,SW,225,28.4,28.4,63,0.00,,,0.00,VWS V14.01,2013-02-01 20:27:00,
2013-02-02 06:33:00,86.7,72.6,29.44,WSW,248,10.7,10.7,63,0.00,,,0.00,VWS V14.01,2013-02-01 20:33:00,
2013-02-02 06:38:00,86.9,72.8,29.44,SW,225,15.4,15.4,63,0.00,,,0.00,VWS V14.01,2013-02-01 20:38:00,
2013-02-02 06:43:00,86.9,72.8,29.44,WNW,292,19.5,20.1,63,0.00,,,0.00,VWS V14.01,2013-02-01 20:43:00,
2013-02-02 06:48:00,87.1,73.0,29.44,SW,225,19.2,25.1,63,0.00,,,0.00,VWS V14.01,2013-02-01 20:48:00,
2013-02-02 06:53:00,87.1,72.5,29.44,West,270,22.4,22.4,62,0.00,,,0.00,VWS V14.01,2013-02-01 20:53:00,
2013-02-02 06:58:00,87.1,72.5,29.47,WSW,248,22.8,22.8,62,0.00,,,0.00,VWS V14.01,2013-02-01 20:58:00,
2013-02-02 07:03:00,87.1,72.5,29.47,SSW,202,26.2,33.8,62,0.00,,,0.00,VWS V14.01,2013-02-01 21:03:00,
2013-02-02 07:08:00,87.1,72.5,29.47,WSW,248,15.7,15.7,62,0.00,,,0.00,VWS V14.01,2013-02-01 21:08:00,
2013-02-02 07:13:00,87.1,73.0,29.47,WSW,248,28.6,28.6,63,0.00,,,0.00,VWS V14.01,2013-02-01 21:13:00,
2013-02-02 07:18:00,87.1,72.5,29.47,West,270,14.5,14.5,62,0.00,,,0.00,VWS V14.01,2013-02-01 21:18:00,
2013-02-02 07:23:00,87.1,72.5,29.47,SW,225,10.5,10.5,62,0.00,,,0.00,VWS V14.01,2013-02-01 21:23:00,
2013-02-02 07:28:00,87.3,72.7,29.47,SW,225,10.5,10.5,62,0.00,,,0.00,VWS V14.01,2013-02-01 21:28:00,
2013-02-02 07:33:00,87.3,72.7,29.47,SSW,202,13.0,13.0,62,0.00,,,0.00,VWS V14.01,2013-02-01 21:33:00,
2013-02-02 07:38:00,87.4,72.8,29.47,West,270,8.5,11.0,62,0.00,,,0.00,VWS V14.01,2013-02-01 21:38:00,
2013-02-02 07:43:00,87.4,72.3,29.47,WNW,292,10.1,10.1,61,0.00,,,0.00,VWS V14.01,2013-02-01 21:43:00,
2013-02-02 07:48:00,87.6,73.0,29.47,NE,45,7.6,7.6,62,0.00,,,0.00,VWS V14.01,2013-02-01 21:48:00,
2013-02-02 07:53:00,87.6,73.0,29.47,NNW,338,3.4,3.4,62,0.00,,,0.00,VWS V14.01,2013-02-01 21:53:00,
2013-02-02 07:58:00,88.0,72.9,29.50,WSW,248,1.3,1.3,61,0.00,,,0.00,VWS V14.01,2013-02-01 21:58:00,
2013-02-02 08:03:00,88.3,72.7,29.50,North,360,2.9,10.1,60,0.00,,,0.00,VWS V14.01,2013-02-01 22:03:00,
2013-02-02 08:08:00,88.2,71.5,29.50,WSW,248,4.9,4.9,58,0.00,,,0.00,VWS V14.01,2013-02-01 22:08:00,
2013-02-02 08:13:00,88.5,72.4,29.50,West,270,3.6,3.6,59,0.00,,,0.00,VWS V14.01,2013-02-01 22:13:00,
2013-02-02 08:19:00,88.9,71.7,29.50,NW,315,3.6,3.6,57,0.00,,,0.00,VWS V14.01,2013-02-01 22:19:00,
2013-02-02 08:24:00,89.2,71.5,29.50,SSW,202,7.4,7.4,56,0.00,,,0.00,VWS V14.01,2013-02-01 22:24:00,
2013-02-02 08:29:00,89.6,72.4,29.50,SSW,202,7.4,7.4,57,0.00,,,0.00,VWS V14.01,2013-02-01 22:29:00,
2013-02-02 08:34:00,89.6,71.8,29.50,SSW,202,7.4,7.4,56,0.00,,,0.00,VWS V14.01,2013-02-01 22:34:00,
2013-02-02 08:39:00,90.0,72.7,29.50,SW,225,2.7,2.7,57,0.00,,,0.00,VWS V14.01,2013-02-01 22:39:00,
2013-02-02 08:44:00,90.0,72.7,29.50,SW,225,2.7,2.7,57,0.00,,,0.00,VWS V14.01,2013-02-01 22:44:00,
2013-02-02 08:49:00,89.8,72.5,29.50,SW,225,2.7,2.7,57,0.00,,,0.00,VWS V14.01,2013-02-01 22:49:00,
2013-02-02 08:54:00,90.1,72.9,29.50,SW,225,2.7,2.7,57,0.00,,,0.00,VWS V14.01,2013-02-01 22:54:00,
2013-02-02 08:59:00,90.7,72.3,29.50,SW,225,2.7,2.7,55,0.00,,,0.00,VWS V14.01,2013-02-01 22:59:00,
2013-02-02 09:04:00,90.7,73.9,29.50,SW,225,2.7,2.7,58,0.00,,,0.00,VWS V14.01,2013-02-01 23:04:00,
2013-02-02 09:09:00,91.0,72.6,29.50,SW,225,2.7,2.7,55,0.00,,,0.00,VWS V14.01,2013-02-01 23:09:00,
2013-02-02 09:14:00,91.0,73.7,29.50,SW,225,2.7,2.7,57,0.00,,,0.00,VWS V14.01,2013-02-01 23:14:00,
2013-02-02 09:19:00,91.6,73.7,29.50,SW,225,2.7,2.7,56,0.00,,,0.00,VWS V14.01,2013-02-01 23:19:00,
2013-02-02 09:24:00,91.8,73.3,29.50,SW,225,2.7,2.7,55,0.00,,,0.00,VWS V14.01,2013-02-01 23:24:00,
2013-02-02 09:29:00,92.3,73.3,29.50,East,90,1.6,1.6,54,0.00,,,0.00,VWS V14.01,2013-02-01 23:29:00,
2013-02-02 09:34:00,92.3,72.7,29.50,East,90,1.6,1.6,53,0.00,,,0.00,VWS V14.01,2013-02-01 23:34:00,
2013-02-02 09:39:00,92.7,73.6,29.50,East,90,1.6,1.6,54,0.00,,,0.00,VWS V14.01,2013-02-01 23:39:00,
2013-02-02 09:44:00,92.7,70.7,29.50,East,90,1.6,1.6,49,0.00,,,0.00,VWS V14.01,2013-02-01 23:44:00,
2013-02-02 09:49:00,93.2,73.0,29.50,East,90,1.6,1.6,52,0.00,,,0.00,VWS V14.01,2013-02-01 23:49:00,
2013-02-02 09:54:00,93.4,72.6,29.50,East,90,1.6,1.6,51,0.00,,,0.00,VWS V14.01,2013-02-01 23:54:00,
2013-02-02 09:59:00,93.6,71.5,29.50,East,90,1.6,1.6,49,0.00,,,0.00,VWS V14.01,2013-02-01 23:59:00,
2013-02-02 10:04:00,93.9,72.5,29.50,East,90,1.6,1.6,50,0.00,,,0.00,VWS V14.01,2013-02-02 00:04:00,
2013-02-02 10:10:00,93.7,72.3,29.50,East,90,1.6,1.6,50,0.00,,,0.00,VWS V14.01,2013-02-02 00:10:00,
2013-02-02 10:15:00,94.1,73.2,29.50,East,90,1.6,1.6,51,0.00,,,0.00,VWS V14.01,2013-02-02 00:15:00,
2013-02-02 10:20:00,94.6,74.3,29.50,East,90,1.6,1.6,52,0.00,,,0.00,VWS V14.01,2013-02-02 00:20:00,
2013-02-02 10:25:00,94.8,73.3,29.50,East,90,1.6,1.6,50,0.00,,,0.00,VWS V14.01,2013-02-02 00:25:00,
2013-02-02 10:30:00,95.0,73.5,29.50,SSE,158,3.1,3.1,50,0.00,,,0.00,VWS V14.01,2013-02-02 00:30:00,
2013-02-02 10:35:00,95.0,72.9,29.50,NE,45,2.5,2.5,49,0.00,,,0.00,VWS V14.01,2013-02-02 00:35:00,
2013-02-02 10:40:00,95.2,73.6,29.50,ENE,68,0.0,0.0,50,0.00,,,0.00,VWS V14.01,2013-02-02 00:40:00,
2013-02-02 10:45:00,95.9,73.7,29.50,ENE,68,0.0,0.0,49,0.00,,,0.00,VWS V14.01,2013-02-02 00:45:00,
2013-02-02 10:50:00,96.1,73.8,29.50,ENE,68,0.0,0.0,49,0.00,,,0.00,VWS V14.01,2013-02-02 00:50:00,
2013-02-02 10:55:00,96.3,73.4,29.50,SSW,202,5.8,5.8,48,0.00,,,0.00,VWS V14.01,2013-02-02 00:55:00,
2013-02-02 11:00:00,96.6,73.7,29.50,WNW,292,3.6,3.6,48,0.00,,,0.00,VWS V14.01,2013-02-02 01:00:00,
2013-02-02 11:05:00,97.0,74.1,29.50,SSW,202,9.8,9.8,48,0.00,,,0.00,VWS V14.01,2013-02-02 01:05:00,
2013-02-02 11:10:00,97.0,73.4,29.50,SSW,202,9.8,9.8,47,0.00,,,0.00,VWS V14.01,2013-02-02 01:10:00,
2013-02-02 11:15:00,96.8,72.6,29.50,SSE,158,0.0,0.0,46,0.00,,,0.00,VWS V14.01,2013-02-02 01:15:00,
2013-02-02 11:20:00,97.3,74.4,29.50,SSE,158,0.0,0.0,48,0.00,,,0.00,VWS V14.01,2013-02-02 01:20:00,
2013-02-02 11:25:00,97.7,74.7,29.50,SSE,158,0.0,0.0,48,0.00,,,0.00,VWS V14.01,2013-02-02 01:25:00,
2013-02-02 11:30:00,97.5,73.9,29.50,SSE,158,0.0,0.0,47,0.00,,,0.00,VWS V14.01,2013-02-02 01:30:00,
2013-02-02 11:35:00,97.7,74.7,29.50,SSE,158,0.0,0.0,48,0.00,,,0.00,VWS V14.01,2013-02-02 01:35:00,
2013-02-02 11:40:00,98.2,74.6,29.50,SSE,158,0.0,0.0,47,0.00,,,0.00,VWS V14.01,2013-02-02 01:40:00,
2013-02-02 11:45:00,98.2,75.2,29.47,SSE,158,0.0,0.0,48,0.00,,,0.00,VWS V14.01,2013-02-02 01:45:00,
2013-02-02 11:51:00,98.2,75.2,29.47,SSE,158,0.0,0.0,48,0.00,,,0.00,VWS V14.01,2013-02-02 01:51:00,
2013-02-02 11:56:00,98.4,75.4,29.47,SSE,158,0.0,0.0,48,0.00,,,0.00,VWS V14.01,2013-02-02 01:56:00,
2013-02-02 12:01:00,98.4,74.1,29.47,SSE,158,0.0,0.0,46,0.00,,,0.00,VWS V14.01,2013-02-02 02:01:00,
2013-02-02 12:06:00,98.6,73.6,29.47,SSE,158,0.0,0.0,45,0.00,,,0.00,VWS V14.01,2013-02-02 02:06:00,
2013-02-02 12:11:00,98.6,74.2,29.47,SSE,158,0.0,0.0,46,0.00,,,0.00,VWS V14.01,2013-02-02 02:11:00,
2013-02-02 12:16:00,99.0,74.6,29.47,SSE,158,0.0,0.0,46,0.00,,,0.00,VWS V14.01,2013-02-02 02:16:00,
2013-02-02 12:21:00,99.1,74.1,29.47,SSE,158,0.0,0.0,45,0.00,,,0.00,VWS V14.01,2013-02-02 02:21:00,
2013-02-02 12:26:00,99.1,75.4,29.47,SSE,158,0.0,0.0,47,0.00,,,0.00,VWS V14.01,2013-02-02 02:26:00,
2013-02-02 12:31:00,99.1,75.4,29.47,SSE,158,0.0,0.0,47,0.00,,,0.00,VWS V14.01,2013-02-02 02:31:00,
2013-02-02 12:36:00,99.1,75.4,29.47,SSE,158,0.0,0.0,47,0.00,,,0.00,VWS V14.01,2013-02-02 02:36:00,
2013-02-02 12:41:00,98.6,76.1,29.47,SSE,158,0.0,0.0,49,0.00,,,0.00,VWS V14.01,2013-02-02 02:41:00,
2013-02-02 12:46:00,98.4,76.6,29.47,SSE,158,0.0,0.0,50,0.00,,,0.00,VWS V14.01,2013-02-02 02:46:00,
2013-02-02 12:51:00,98.1,76.8,29.47,NE,45,3.8,3.8,51,0.00,,,0.00,VWS V14.01,2013-02-02 02:51:00,
2013-02-02 12:56:00,97.9,77.3,29.47,NNE,22,7.2,7.2,52,0.00,,,0.00,VWS V14.01,2013-02-02 02:56:00,
2013-02-02 13:01:00,97.9,77.3,29.47,NNW,338,2.9,2.9,52,0.00,,,0.00,VWS V14.01,2013-02-02 03:01:00,
2013-02-02 13:06:00,97.7,78.2,29.47,ENE,68,4.3,4.3,54,0.00,,,0.00,VWS V14.01,2013-02-02 03:06:00,
2013-02-02 13:11:00,97.3,77.9,29.47,NNE,22,3.4,3.4,54,0.00,,,0.00,VWS V14.01,2013-02-02 03:11:00,
2013-02-02 13:16:00,97.5,78.1,29.47,North,360,5.6,5.6,54,0.00,,,0.00,VWS V14.01,2013-02-02 03:16:00,
2013-02-02 13:21:00,97.3,78.5,29.47,North,360,2.5,2.5,55,0.00,,,0.00,VWS V14.01,2013-02-02 03:21:00,
2013-02-02 13:27:00,97.3,79.0,29.47,NNE,22,5.4,5.4,56,0.00,,,0.00,VWS V14.01,2013-02-02 03:27:00,
2013-02-02 13:32:00,97.0,78.1,29.44,NE,45,3.6,3.6,55,0.00,,,0.00,VWS V14.01,2013-02-02 03:32:00,
2013-02-02 13:37:00,97.3,77.9,29.44,NNW,338,0.9,0.9,54,0.00,,,0.00,VWS V14.01,2013-02-02 03:37:00,
2013-02-02 13:42:00,97.2,77.8,29.44,NNW,338,0.9,0.9,54,0.00,,,0.00,VWS V14.01,2013-02-02 03:42:00,
2013-02-02 13:47:00,97.2,77.8,29.44,NW,315,6.5,6.5,54,0.00,,,0.00,VWS V14.01,2013-02-02 03:47:00,
2013-02-02 13:52:00,97.0,77.0,29.44,NNE,22,3.6,6.5,53,0.00,,,0.00,VWS V14.01,2013-02-02 03:52:00,
2013-02-02 13:57:00,96.8,76.3,29.44,NNE,22,3.6,3.6,52,0.00,,,0.00,VWS V14.01,2013-02-02 03:57:00,
2013-02-02 14:02:00,96.4,76.5,29.44,NE,45,4.9,4.9,53,0.00,,,0.00,VWS V14.01,2013-02-02 04:02:00,
2013-02-02 14:07:00,96.6,76.7,29.44,NNE,22,2.7,5.6,53,0.00,,,0.00,VWS V14.01,2013-02-02 04:07:00,
2013-02-02 14:12:00,96.8,75.7,29.44,NW,315,2.9,2.9,51,0.00,,,0.00,VWS V14.01,2013-02-02 04:12:00,
2013-02-02 14:17:00,97.0,75.3,29.44,NNW,338,4.3,4.3,50,0.00,,,0.00,VWS V14.01,2013-02-02 04:17:00,
2013-02-02 14:22:00,97.0,74.7,29.44,NNE,22,4.0,4.0,49,0.00,,,0.00,VWS V14.01,2013-02-02 04:22:00,
2013-02-02 14:27:00,97.2,75.4,29.44,NNW,338,3.6,3.6,50,0.00,,,0.00,VWS V14.01,2013-02-02 04:27:00,
2013-02-02 14:32:00,97.3,75.6,29.44,ENE,68,2.5,2.5,50,0.00,,,0.00,VWS V14.01,2013-02-02 04:32:00,
2013-02-02 14:37:00,97.0,75.3,29.44,NE,45,4.3,4.3,50,0.00,,,0.00,VWS V14.01,2013-02-02 04:37:00,
2013-02-02 14:42:00,96.8,74.5,29.44,ESE,112,0.0,0.0,49,0.00,,,0.00,VWS V14.01,2013-02-02 04:42:00,
2013-02-02 14:47:00,97.0,74.7,29.44,NE,45,3.1,3.1,49,0.00,,,0.00,VWS V14.01,2013-02-02 04:47:00,
2013-02-02 14:53:00,96.8,74.5,29.44,ENE,68,1.1,5.6,49,0.00,,,0.00,VWS V14.01,2013-02-02 04:53:00,
2013-02-02 14:58:00,96.4,74.2,29.44,NE,45,3.6,3.8,49,0.00,,,0.00,VWS V14.01,2013-02-02 04:58:00,
2013-02-02 15:00:00,96.4,74.2,29.44,North,360,4.3,6.3,49,0.00,,,0.00,VWS V14.01,2013-02-02 05:00:00,
2013-02-02 15:01:00,96.4,74.8,29.44,NNE,22,1.1,3.4,50,0.00,,,0.00,VWS V14.01,2013-02-02 05:01:00,
2013-02-02 15:04:00,96.6,74.9,29.44,SE,135,2.0,4.0,50,0.00,,,0.00,VWS V14.01,2013-02-02 05:04:00,
2013-02-02 15:10:00,96.6,74.3,29.44,NNE,22,4.9,4.9,49,0.00,,,0.00,VWS V14.01,2013-02-02 05:10:00,
2013-02-02 15:15:00,96.4,74.8,29.44,North,360,5.4,5.4,50,0.00,,,0.00,VWS V14.01,2013-02-02 05:15:00,
2013-02-02 15:20:00,96.6,74.3,29.44,ENE,68,5.8,5.8,49,0.00,,,0.00,VWS V14.01,2013-02-02 05:20:00,
2013-02-02 15:25:00,96.4,74.8,29.44,NNE,22,4.9,6.3,50,0.00,,,0.00,VWS V14.01,2013-02-02 05:25:00,
2013-02-02 15:30:00,96.1,74.4,29.44,North,360,2.5,5.8,50,0.00,,,0.00,VWS V14.01,2013-02-02 05:30:00,
2013-02-02 15:35:00,96.1,74.4,29.44,North,360,4.9,6.0,50,0.00,,,0.00,VWS V14.01,2013-02-02 05:35:00,
2013-02-02 15:40:00,96.3,75.2,29.44,NE,45,1.6,1.6,51,0.00,,,0.00,VWS V14.01,2013-02-02 05:40:00,
2013-02-02 15:45:00,95.7,74.7,29.44,NNE,22,7.4,8.7,51,0.00,,,0.00,VWS V14.01,2013-02-02 05:45:00,
2013-02-02 15:50:00,95.9,74.9,29.44,North,360,2.5,2.5,51,0.00,,,0.00,VWS V14.01,2013-02-02 05:50:00,
2013-02-02 15:55:00,96.1,75.0,29.44,NNE,22,3.1,3.1,51,0.00,,,0.00,VWS V14.01,2013-02-02 05:55:00,
2013-02-02 16:00:00,95.9,74.9,29.44,NNE,22,3.1,3.1,51,0.00,,,0.00,VWS V14.01,2013-02-02 06:00:00,
2013-02-02 16:05:00,95.4,74.4,29.44,NNE,22,4.9,4.9,51,0.00,,,0.00,VWS V14.01,2013-02-02 06:05:00,
2013-02-02 16:10:00,95.2,74.2,29.44,ENE,68,5.4,5.4,51,0.00,,,0.00,VWS V14.01,2013-02-02 06:10:00,
2013-02-02 16:15:00,95.4,74.4,29.44,North,360,3.8,3.8,51,0.00,,,0.00,VWS V14.01,2013-02-02 06:15:00,
2013-02-02 16:21:00,95.4,75.5,29.44,NNE,22,3.1,3.1,53,0.00,,,0.00,VWS V14.01,2013-02-02 06:21:00,
2013-02-02 16:26:00,95.2,74.8,29.44,NNW,338,3.4,3.4,52,0.00,,,0.00,VWS V14.01,2013-02-02 06:26:00,
2013-02-02 16:31:00,95.2,75.4,29.44,NNE,22,7.6,7.6,53,0.00,,,0.00,VWS V14.01,2013-02-02 06:31:00,
2013-02-02 16:36:00,94.8,75.6,29.44,NE,45,2.9,2.9,54,0.00,,,0.00,VWS V14.01,2013-02-02 06:36:00,
2013-02-02 16:41:00,95.0,75.8,29.44,NNW,338,1.1,1.1,54,0.00,,,0.00,VWS V14.01,2013-02-02 06:41:00,
2013-02-02 16:46:00,94.5,75.8,29.44,NNW,338,2.5,2.5,55,0.00,,,0.00,VWS V14.01,2013-02-02 06:46:00,
2013-02-02 16:51:00,94.3,75.6,29.44,NE,45,1.6,1.6,55,0.00,,,0.00,VWS V14.01,2013-02-02 06:51:00,
2013-02-02 16:56:00,94.1,76.0,29.44,NE,45,2.2,2.2,56,0.00,,,0.00,VWS V14.01,2013-02-02 06:56:00,
2013-02-02 17:01:00,93.6,75.5,29.44,North,360,2.7,2.7,56,0.00,,,0.00,VWS V14.01,2013-02-02 07:01:00,
2013-02-02 17:06:00,93.2,75.2,29.44,North,360,3.1,3.1,56,0.00,,,0.00,VWS V14.01,2013-02-02 07:06:00,
2013-02-02 17:11:00,93.4,75.3,29.44,NNE,22,3.1,3.1,56,0.00,,,0.00,VWS V14.01,2013-02-02 07:11:00,
2013-02-02 17:16:00,93.0,75.5,29.44,NE,45,2.2,2.2,57,0.00,,,0.00,VWS V14.01,2013-02-02 07:16:00,
2013-02-02 17:21:00,92.8,75.9,29.44,ENE,68,2.0,2.0,58,0.00,,,0.00,VWS V14.01,2013-02-02 07:21:00,
2013-02-02 17:26:00,92.7,75.7,29.44,NNW,338,0.0,0.0,58,0.00,,,0.00,VWS V14.01,2013-02-02 07:26:00,
2013-02-02 17:31:00,92.5,75.6,29.44,North,360,2.7,4.7,58,0.00,,,0.00,VWS V14.01,2013-02-02 07:31:00,
2013-02-02 17:36:00,92.3,75.4,29.44,North,360,3.4,3.4,58,0.00,,,0.00,VWS V14.01,2013-02-02 07:36:00,
2013-02-02 17:41:00,92.1,75.7,29.44,NNW,338,2.5,2.5,59,0.00,,,0.00,VWS V14.01,2013-02-02 07:41:00,
2013-02-02 17:46:00,91.8,75.9,29.47,ENE,68,2.9,2.9,60,0.00,,,0.00,VWS V14.01,2013-02-02 07:46:00,
2013-02-02 17:51:00,91.8,75.9,29.47,North,360,1.3,1.3,60,0.00,,,0.00,VWS V14.01,2013-02-02 07:51:00,
2013-02-02 17:57:00,91.6,75.7,29.47,NNW,338,4.0,4.0,60,0.00,,,0.00,VWS V14.01,2013-02-02 07:57:00,
2013-02-02 18:02:00,90.9,74.1,29.44,NNW,338,0.0,0.0,58,0.00,,,0.00,VWS V14.01,2013-02-02 08:02:00,
2013-02-02 18:07:00,91.0,73.7,29.44,SSE,158,0.0,0.0,57,0.00,,,0.00,VWS V14.01,2013-02-02 08:07:00,
2013-02-02 18:12:00,91.2,74.4,29.44,ENE,68,0.0,2.7,58,0.00,,,0.00,VWS V14.01,2013-02-02 08:12:00,
2013-02-02 18:17:00,91.2,74.4,29.44,NE,45,0.0,0.0,58,0.00,,,0.00,VWS V14.01,2013-02-02 08:17:00,
2013-02-02 18:22:00,91.2,74.4,29.44,East,90,0.0,0.0,58,0.00,,,0.00,VWS V14.01,2013-02-02 08:22:00,
2013-02-02 18:27:00,91.2,74.4,29.44,SE,135,0.0,0.0,58,0.00,,,0.00,VWS V14.01,2013-02-02 08:27:00,
2013-02-02 18:32:00,91.2,74.4,29.44,East,90,0.0,0.0,58,0.00,,,0.00,VWS V14.01,2013-02-02 08:32:00,
2013-02-02 18:37:00,91.2,74.4,29.44,SW,225,0.0,0.0,58,0.00,,,0.00,VWS V14.01,2013-02-02 08:37:00,
2013-02-02 18:43:00,91.2,74.9,29.44,WSW,248,0.0,0.0,59,0.00,,,0.00,VWS V14.01,2013-02-02 08:43:00,
2013-02-02 18:48:00,91.0,74.2,29.44,WSW,248,0.0,0.0,58,0.00,,,0.00,VWS V14.01,2013-02-02 08:48:00,
2013-02-02 18:53:00,91.2,74.4,29.44,SW,225,0.0,0.0,58,0.00,,,0.00,VWS V14.01,2013-02-02 08:53:00,
2013-02-02 18:58:00,90.7,73.9,29.44,SW,225,0.0,0.0,58,0.00,,,0.00,VWS V14.01,2013-02-02 08:58:00,
2013-02-02 19:03:00,90.5,73.7,29.47,WSW,248,0.0,0.0,58,0.00,,,0.00,VWS V14.01,2013-02-02 09:03:00,
2013-02-02 19:08:00,90.5,73.7,29.47,WSW,248,2.2,2.2,58,0.00,,,0.00,VWS V14.01,2013-02-02 09:08:00,
2013-02-02 19:13:00,90.1,73.4,29.47,SW,225,0.0,0.0,58,0.00,,,0.00,VWS V14.01,2013-02-02 09:13:00,
2013-02-02 19:18:00,90.1,73.4,29.47,SW,225,0.0,0.0,58,0.00,,,0.00,VWS V14.01,2013-02-02 09:18:00,
2013-02-02 19:23:00,90.1,73.4,29.47,SW,225,0.0,0.0,58,0.00,,,0.00,VWS V14.01,2013-02-02 09:23:00,
2013-02-02 19:28:00,90.0,73.2,29.47,SW,225,1.1,1.1,58,0.00,,,0.00,VWS V14.01,2013-02-02 09:28:00,
2013-02-02 19:33:00,89.4,72.7,29.47,SW,225,0.0,0.0,58,0.00,,,0.00,VWS V14.01,2013-02-02 09:33:00,
2013-02-02 19:38:00,89.1,72.4,29.47,SW,225,0.0,0.0,58,0.00,,,0.00,VWS V14.01,2013-02-02 09:38:00,
2013-02-02 19:43:00,88.9,72.7,29.47,WSW,248,0.0,0.0,59,0.00,,,0.00,VWS V14.01,2013-02-02 09:43:00,
2013-02-02 19:48:00,88.5,71.9,29.47,WSW,248,0.0,0.0,58,0.00,,,0.00,VWS V14.01,2013-02-02 09:48:00,
2013-02-02 19:53:00,88.5,72.4,29.47,NW,315,0.0,0.0,59,0.00,,,0.00,VWS V14.01,2013-02-02 09:53:00,
2013-02-02 19:58:00,88.3,72.7,29.47,NW,315,0.0,0.0,60,0.00,,,0.00,VWS V14.01,2013-02-02 09:58:00,
2013-02-02 20:03:00,88.3,73.7,29.47,NW,315,0.0,0.0,62,0.00,,,0.00,VWS V14.01,2013-02-02 10:03:00,
2013-02-02 20:08:00,88.5,73.8,29.47,NW,315,0.0,0.0,62,0.00,,,0.00,VWS V14.01,2013-02-02 10:08:00,
2013-02-02 20:13:00,88.3,73.2,29.47,SSW,202,2.5,2.5,61,0.00,,,0.00,VWS V14.01,2013-02-02 10:13:00,
2013-02-02 20:18:00,88.2,73.0,29.50,SW,225,0.0,0.0,61,0.00,,,0.00,VWS V14.01,2013-02-02 10:18:00,
2013-02-02 20:23:00,88.0,73.8,29.50,SW,225,0.0,0.0,63,0.00,,,0.00,VWS V14.01,2013-02-02 10:23:00,
2013-02-02 20:29:00,87.6,73.9,29.50,SW,225,0.0,0.0,64,0.00,,,0.00,VWS V14.01,2013-02-02 10:29:00,
2013-02-02 20:34:00,87.8,74.1,29.50,WSW,248,0.0,0.0,64,0.00,,,0.00,VWS V14.01,2013-02-02 10:34:00,
2013-02-02 20:39:00,87.6,73.9,29.50,SW,225,2.9,2.9,64,0.00,,,0.00,VWS V14.01,2013-02-02 10:39:00,
2013-02-02 20:44:00,87.4,73.8,29.50,SW,225,2.5,2.5,64,0.00,,,0.00,VWS V14.01,2013-02-02 10:44:00,
2013-02-02 20:49:00,87.3,73.6,29.50,SW,225,0.0,0.0,64,0.00,,,0.00,VWS V14.01,2013-02-02 10:49:00,
2013-02-02 20:54:00,87.1,73.4,29.50,SW,225,0.0,0.0,64,0.00,,,0.00,VWS V14.01,2013-02-02 10:54:00,
2013-02-02 20:59:00,87.1,73.9,29.50,SW,225,0.0,0.0,65,0.00,,,0.00,VWS V14.01,2013-02-02 10:59:00,
2013-02-02 21:04:00,86.9,73.3,29.50,WSW,248,0.0,0.0,64,0.00,,,0.00,VWS V14.01,2013-02-02 11:04:00,
2013-02-02 21:09:00,87.1,73.4,29.50,SW,225,0.0,0.0,64,0.00,,,0.00,VWS V14.01,2013-02-02 11:09:00,
2013-02-02 21:14:00,86.9,73.7,29.50,SSW,202,2.9,2.9,65,0.00,,,0.00,VWS V14.01,2013-02-02 11:14:00,
2013-02-02 21:19:00,86.7,73.6,29.50,SW,225,0.0,0.0,65,0.00,,,0.00,VWS V14.01,2013-02-02 11:19:00,
2013-02-02 21:24:00,86.7,73.1,29.50,SSW,202,0.0,0.0,64,0.00,,,0.00,VWS V14.01,2013-02-02 11:24:00,
2013-02-02 21:29:00,86.5,72.9,29.50,SW,225,1.6,2.5,64,0.00,,,0.00,VWS V14.01,2013-02-02 11:29:00,
2013-02-02 21:34:00,86.2,72.6,29.50,SW,225,1.6,1.6,64,0.00,,,0.00,VWS V14.01,2013-02-02 11:34:00,
2013-02-02 21:39:00,86.0,72.9,29.50,SW,225,1.6,1.6,65,0.00,,,0.00,VWS V14.01,2013-02-02 11:39:00,
2013-02-02 21:44:00,86.2,73.0,29.53,SW,225,1.6,1.6,65,0.00,,,0.00,VWS V14.01,2013-02-02 11:44:00,
2013-02-02 21:49:00,86.0,72.9,29.53,SSW,202,0.0,0.0,65,0.00,,,0.00,VWS V14.01,2013-02-02 11:49:00,
2013-02-02 21:54:00,86.0,73.3,29.53,WSW,248,0.0,0.0,66,0.00,,,0.00,VWS V14.01,2013-02-02 11:54:00,
2013-02-02 22:00:00,85.5,72.8,29.53,SSW,202,0.0,0.0,66,0.00,,,0.00,VWS V14.01,2013-02-02 12:00:00,
2013-02-02 22:05:00,85.1,72.5,29.53,SW,225,2.5,2.5,66,0.00,,,0.00,VWS V14.01,2013-02-02 12:05:00,
2013-02-02 22:10:00,84.7,72.1,29.53,WSW,248,1.1,1.6,66,0.00,,,0.00,VWS V14.01,2013-02-02 12:10:00,
2013-02-02 22:15:00,84.9,72.3,29.53,WSW,248,2.9,2.9,66,0.00,,,0.00,VWS V14.01,2013-02-02 12:15:00,
2013-02-02 22:20:00,84.7,72.1,29.53,WSW,248,2.9,2.9,66,0.00,,,0.00,VWS V14.01,2013-02-02 12:20:00,
2013-02-02 22:25:00,84.6,72.4,29.53,WSW,248,2.9,2.9,67,0.00,,,0.00,VWS V14.01,2013-02-02 12:25:00,
2013-02-02 22:30:00,84.4,71.8,29.53,WSW,248,2.9,2.9,66,0.00,,,0.00,VWS V14.01,2013-02-02 12:30:00,
2013-02-02 22:35:00,84.2,71.6,29.53,WSW,248,0.0,1.3,66,0.00,,,0.00,VWS V14.01,2013-02-02 12:35:00,
2013-02-02 22:40:00,84.4,71.8,29.53,SW,225,0.0,3.8,66,0.00,,,0.00,VWS V14.01,2013-02-02 12:40:00,
2013-02-02 22:45:00,84.0,71.9,29.53,WSW,248,0.0,1.1,67,0.00,,,0.00,VWS V14.01,2013-02-02 12:45:00,
2013-02-02 22:50:00,84.2,72.1,29.53,SSW,202,2.5,2.5,67,0.00,,,0.00,VWS V14.01,2013-02-02 12:50:00,
2013-02-02 22:55:00,84.0,71.9,29.53,WSW,248,3.1,3.1,67,0.00,,,0.00,VWS V14.01,2013-02-02 12:55:00,
2013-02-02 23:00:00,83.7,71.6,29.53,West,270,0.0,0.0,67,0.00,,,0.00,VWS V14.01,2013-02-02 13:00:00,
2013-02-02 23:05:00,83.5,71.4,29.53,SSW,202,1.3,1.3,67,0.00,,,0.00,VWS V14.01,2013-02-02 13:05:00,
2013-02-02 23:10:00,83.8,71.7,29.53,SSW,202,1.3,1.3,67,0.00,,,0.00,VWS V14.01,2013-02-02 13:10:00,
2013-02-02 23:15:00,83.7,71.6,29.53,SSW,202,1.3,1.3,67,0.00,,,0.00,VWS V14.01,2013-02-02 13:15:00,
2013-02-02 23:20:00,83.1,71.0,29.53,SSW,202,1.3,1.3,67,0.00,,,0.00,VWS V14.01,2013-02-02 13:20:00,
2013-02-02 23:26:00,83.1,71.0,29.53,SW,225,0.0,0.0,67,0.00,,,0.00,VWS V14.01,2013-02-02 13:26:00,
2013-02-02 23:31:00,83.3,71.2,29.53,SW,225,0.0,0.0,67,0.00,,,0.00,VWS V14.01,2013-02-02 13:31:00,
2013-02-02 23:36:00,83.3,71.2,29.53,SW,225,0.0,0.0,67,0.00,,,0.00,VWS V14.01,2013-02-02 13:36:00,
2013-02-02 23:41:00,83.1,71.0,29.53,SW,225,0.0,0.0,67,0.00,,,0.00,VWS V14.01,2013-02-02 13:41:00,
2013-02-02 23:46:00,82.9,70.9,29.53,SW,225,0.0,0.0,67,0.00,,,0.00,VWS V14.01,2013-02-02 13:46:00,
2013-02-02 23:51:00,82.8,71.1,29.53,SW,225,0.0,0.0,68,0.00,,,0.00,VWS V14.01,2013-02-02 13:51:00,
2013-02-02 23:56:00,82.8,71.1,29.53,SW,225,0.0,0.0,68,0.00,,,0.00,VWS V14.01,2013-02-02 13:56:00,